Погода в Тамдыбулаке

Погода в Тамдыбулаке : погода сейчас, прогноз погоды и архив. Всё, что Вы хотите узнать о погоде в Тамдыбулаке!

Хотите узнать прогноз погоды в Тамдыбулаке? Тогда Вам сюда: Погода в Тамдыбулаке

Поиск расширенной информации на нашем сайте:

Другие новости

Новости СМИ2

Главная страница сайта

Новости сайта

03.07.2017

Напоминаем, что на нашем специализированном сайте Метеоцентр.Азия вы можете получить высокодетализированные автоматические прогнозы погоды по пунктам России, СНГ и мира в авиационном формате (включающие направление и скорость ветра, видимость, явления погоды, количество и форму облачности, нижнюю и верхнюю границу облачности).


Погода в Тамдыбулаке - сегодня

Время (UTC), дата Ветер
(°,м/с) 
Видим.   Явления Облачность Т
(°С)
Тd
(°С)
f(%) Тe
(°С)
Pmin
(гПа)
dP
(гПа)
Po
(мм)
O2
(г/м3)
Тmin Tmax R s Состояние
почвы
18 19.08.17 050 (СВ) н/о    9/0 средняя 
[Ac As]
+28.7 +0.4 16 +29  1014.4  0.2  741  270    +33.6       
21 19.08.17 030 (СВ) н/о    5/0 средняя 
[Ac trans]
+25.4 +0.2 19 +25  1015.2  0.4  741  273           
00 20.08.17 340 (С) н/о    3/0 средняя 
[Ac trans]
+22.5 +0 22 +23  1015.1  -0.3  741  276           
03 20.08.17 330 (СЗ) 20000 м    1/0 средняя 
[Ac trans]
+25.8 +0.6 19 +26  1016.7  1.8  742  273           
06 20.08.17 050 (СВ) 20000 м    ясно 
+31.8 +3 16 +32  1016.1  742  267  +22.3         
09 20.08.17 040 (СВ) 20000 м    ясно 
+33.6 +1.3 13 +34  1015  -0.9  742  266           
12 20.08.17 030 (СВ) 20000 м    ясно 
+34 -0.7 11 +34  1014.9  -0.1  741  266           
15 20.08.17 020 (С) 20000 м    ясно 
+30.6 -0.7 13 +31  1014.4  0.1  742  269    +34.8       
18 20.08.17 150 (ЮВ) н/о    ясно 
+25.2 -1.9 17 +25  1016.4  0.6  742  274    +34.8       
21 20.08.17 210 (ЮЗ) н/о    ясно 
+23.1 -1.7 19 +23  1017.6  0.6  742  276           
00 21.08.17 310 (СЗ) н/о    ясно 
+21.1 -2.2 21 +21  1017.8  0.4  743  278           
03 21.08.17 100 (В) 20000 м    ясно 
+23.3 -1.9 19 +23  1017.8  0.2  743  276  +20.9         
06 21.08.17 050 (СВ) 20000 м    ясно 
+30 +0.9 15 +30  1015.5  -1.7  742  269  +20.9         
09 21.08.17 040 (СВ) 20000 м    ясно 
+32.4 -0.5 12 +32  1014  -1.3  741  267           
12 21.08.17 040 (СВ) 20000 м    ясно 
+32.6 -1.4 11 +33  1012.6  -1.3  740  266           
15 21.08.17 040 (СВ) 20000 м    ясно 
+29.4 -0.7 14 +29  1012.9  740  269    +33.4       
18 21.08.17 030 (СВ) н/о    ясно 
+24.8 -1.2 18 +25  1014.4  1.1  740  274    +33.4       
21 21.08.17 030 (СВ) н/о    ясно 
+21.7 -2.2 20 +22  1015.3  0.6  741  277           
00 22.08.17 080 (В) 20000 м    3/0 средняя 
[As op]
+19.3 -2.7 22 +20  1014.5  -1  740  279           
03 22.08.17 050 (СВ) 20000 м    ясно 
+22.3 -2.7 19 +22  1013.6  -0.6  740  276  +19.1         
06 22.08.17 080 (В) 20000 м    5/0 средняя, верхняя 
[Ac trans|Ci fib]
+28 -1.2 15 +28  1013.5  0.4  740  271  +19.1         
09 22.08.17 040 (СВ) 20000 м    3/0 средняя 
[As op]
+30.6 -2.2 12 +31  1012.3  -1  739  268           
12 22.08.17 310 (СЗ) 20000 м    3/0 средняя 
[As op]
+30.8 -3.3 11 +31  1010.8  -1.4  738  268           
15 22.08.17 040 (СВ) 20000 м    1/0 средняя 
[As op]
+29.6 -3 12 +30  1011.5  0.6  739  269    +31.4       
18 22.08.17 020 (С) н/о    ясно 
+24 -2.7 17 +24  1012.5  0.4  739  274    +31.4       
Время (UTC), дата Ветер
(°,м/с) 
Видим.   Явления Облачность Т
(°С)
Тd
(°С)
f(%) Тe
(°С)
Pmin
(гПа)
dP
(гПа)
Po
(мм)
O2
(г/м3)
Тmin Tmax R s Состояние
почвы

Для получения пояснительной информации подведите курсор к названию столбца.

ПОГОДА в Тамдыбулаке - архив

Всё, что Вы хотите узнать о погоде в Тамдыбулаке - удобно и подробно!

Выберите нужную дату (начиная с 1 января 2015* года) и нажмите кнопку "Найти".
Будут отображены архивные сводки погоды по пункту Тамдыбулак, начиная с указанной даты.


Отображать данные в формате CSV (для использования в таблицах Excel)


Внимание! Наш архив погоды предназначен исключительно для личного некоммерческого использования в познавательных целях. Если Вам необходимы официальные справки о состоянии погоды (для производственных, юридических, коммерческих и т.п. целей), обращайтесь в органы Росгидромета.

*Примечание: данная дата относится к архиву по метеостанциям СССР (Россия, СНГ, Балтия).
Архив по метеостанциям Зарубежной Европы и Азии (кроме Китая) хранится 10 дней, по другим регионам земного шара (Китай, Африка, Америка, Австралия, Океания) - 1 день.

Тамдыбулак - район местоположения метеостанции


Название, широта, долгота, высота метеостанции:
Тамдыбулак (Тамды) 41.7°ш. 64.6°д. 237 м над ур. моря [Узбекистан]

Дополнительная информация

В oтличие oт бoльшинства пoгoдных сайтoв мы публикуем пoдрoбную метеoинфoрмацию в детальнoм прoфессиoнальнoм фoрмате.

Характеристики температуры и влажнoсти вoздуха измеряются на высoте 2 м в тени вдали oт зданий и деревьев.
Скoрoсть ветра измеряется на высoте 10 м (на урoвне рoста челoвека скoрoсть ветра ниже в 1.5-2 раза). Если метеoстанция нахoдится в гoрoде или в лесу, тo скoрoсть ветра занижена на 2-4 м/с пo сравнению с oткрытым местoм. Скoрoсть ветра над акватoриями крупных рек и oзёр, а также на вершинах хoлмoв на 2-5 м/с выше, чем в oбычных услoвиях.
Атмoсфернoе давление в разных тoчках местнoсти мoжет значительнo oтличаться oт давления на метеoстанции, в зависимoсти oт услoвий рельефа (при пoдъёме на 10 м давление пoнижается примернo на 1 мм рт.ст.).